Terminal Aerodrome Forecast
Issued by NWS

Home | Current Version | Previous Version | Text Only | Print | Product List | Glossary On
Versions: 1 2 3 4 5 6 7 8 9 10 11 12 13 14 15 16
000
FTUS45 KTFX 252343 RRA
TAFBZN
TAF
KBZN 252343Z 2600/2624 10008KT P6SM VCSH SCT040 BKN070
     FM260900 32007KT 4SM -SN BKN025
     FM261600 34006KT 5SM -RA OVC015
     FM262100 05006KT P6SM VCSH OVC025=

USA.gov is the U.S. government's official web portal to all federal, state and local government web resources and services.